Hourly Data Report for August 01, 2021

MIRAMICHI RCS
NEW BRUNSWICK
Current Station Operator: ECCC - MSC

47°00'34.000" N
65°27'54.000" W
33.00 m
8100989
71744
ACQ

Download Data

Hourly Data (August 2021)
Hourly Data Report for August 1, 2021
TIME
LST
Temp Definition
°C
Dew Point Definition
°C
Rel Hum Definition
%
Precip. Amount Definition
mm

Wind Dir Definition
10's deg

Wind Spd Definition
km/h
Visibility Definition
km
Stn Press Definition
kPa
Hmdx Definition


Wind Chill Definition


Weather Definition


00:00 13.8 11.1 84 0.0 25 12   100.39     LegendNANA
01:00 13.1 10.9 87 0.0 25 8   100.38     LegendNANA
02:00 12.3 10.5 89 0.0 26 8   100.38     LegendNANA
03:00 10.9 9.6 91 0.0 20 6   100.40     LegendNANA
04:00 11.1 9.7 91 0.0 24 9   100.44     LegendNANA
05:00 10.6 9.4 92 0.0 24 7   100.50     LegendNANA
06:00 11.2 9.6 90 0.0 25 7   100.55     LegendNANA
07:00 12.8 10.2 84 0.0 24 14   100.62     LegendNANA
08:00 15.6 11.0 74 0.0 25 13   100.67     LegendNANA
09:00 18.1 11.5 65 0.0 25 11   100.65     LegendNANA
10:00 20.4 10.8 54 0.0 23 20   100.65     LegendNANA
11:00 21.8 10.5 49 0.0 24 18   100.64     LegendNANA
12:00 22.8 10.4 46 0.0 24 17   100.60     LegendNANA
13:00 23.7 9.4 40 0.0 25 18   100.57 25   LegendNANA
14:00 24.6 10.9 42 0.0 24 20   100.55 26   LegendNANA
15:00 24.3 9.2 38 0.0 24 22   100.55 25   LegendNANA
16:00 24.6 8.8 37 0.0 24 20   100.56 25   LegendNANA
17:00 24.5 9.5 39 0.0 24 15   100.60 26   LegendNANA
18:00 24.0 8.4 37 0.0 25 15   100.60 25   LegendNANA
19:00 22.1 11.3 50 0.0 23 10   100.63     LegendNANA
20:00 19.5 10.7 57 0.0 24 6   100.66     LegendNANA
21:00 17.7 11.1 65 0.0 21 4   100.73     LegendNANA
22:00 16.1 11.1 72 0.0 26 6   100.74     LegendNANA
23:00 15.3 10.8 75 0.0 20 4   100.76     LegendNANA

Notes on Data Quality.

Legend

  • E = Estimated
  • M = Missing
  • NA = Not Available*
  • [empty] = Indicates an unobserved value
Date modified: